Torna al catalogo

COSMOS 1275 DEB

AttivoPO
NORAD 42212·DEBRIS·🇷🇺 Russia

Lanciato Jun 4, 1981 da Plesetsk Cosmodrome

Loading…

Prossimi Passaggi (prossime 24 ore)

TLE

AggiornatoSource: Space-Track

Epoca: Sep 13, 2026, 06:38 UTC

1 42212U 81053UC  26256.27680735  .00000675  00000-0  75916-3 0  9996
2 42212  83.0466  82.5835 0149909  37.3006  81.8894 13.64722676636010

Traccia COSMOS 1275 DEB in tempo reale con AllMySat

Download on the App Store